Home   Weather   Famagusta   Past weeks

Flag for Cyprus Past Weather in Famagusta, Northern Cyprus, Cyprus — Yesterday and Last 2 Weeks

Now
82 °F

Passing clouds.


Feels Like: 82 °F
Forecast: 70 / 84 °F
Wind: 10 mph from Southeast

Location: Larnaca Airport

Current Time: Sep 29, 2016 at 4:37:34 PM

Latest Report: Sep 29, 2016 at 4:00 PM


Visibility: N/A

Pressure: 30.01 "Hg

Humidity: 45%

Dew Point: 59 °F

Location of FamagustaLocation

Past Weather in Famagusta — Graph

°F

Famagusta Temperature Yesterday

Maximum temperature yesterday: 84 °F (at 2:00 PM)
Minimum temperature yesterday: 68 °F (at 4:30 AM)
Average temperature yesterday: 76 °F

High & Low Weather Summary for the Past Weeks

 TemperatureHumidityPressure
High91 °F (Sep 19, 3:00 PM)89% (Sep 19, 11:00 PM)30.09 "Hg (Sep 19, 11:00 PM)
Low64 °F (Sep 23, 6:00 AM)17% (Sep 24, 5:30 PM)29.77 "Hg (Sep 14, 3:00 PM)
Average78 °F54%29.89 "Hg
* Reported Sep 14 3:00 PM — Sep 29 3:00 PM, Famagusta, Weather by CustomWeather, © 2016

Note: Actual official high and low records may vary slightly from our data, if they occured in-between our weather recording intervals... More about our weather records

Advertising

Famagusta Weather History for the Previous 24 Hours

Scroll right to see more
 ConditionsComfort  
Time TempWeatherWind HumidityBarometerVisibility
3:00 PM
Thu, Sep 29
84 °FPassing clouds.12 mph43%30.01 "HgN/A
2:30 PM84 °FPassing clouds.12 mph40%30.01 "HgN/A
2:00 PM84 °FPassing clouds.14 mph40%30.01 "HgN/A
1:30 PM84 °FPassing clouds.14 mph43%30.04 "HgN/A
1:00 PM86 °FPassing clouds.13 mph35%30.04 "HgN/A
12:30 PM84 °FPassing clouds.9 mph37%30.07 "HgN/A
12:00 PM84 °FPassing clouds.8 mph35%30.07 "HgN/A
11:30 AM84 °FPassing clouds.6 mph35%30.07 "HgN/A
11:00 AM84 °FPassing clouds.8 mph37%30.09 "HgN/A
10:30 AM82 °FPassing clouds.8 mph42%30.09 "HgN/A
10:00 AM82 °FPassing clouds.12 mph40%30.09 "HgN/A
9:30 AM82 °FSunny.12 mph45%30.09 "Hg10 mi
9:00 AM81 °FSunny.12 mph45%30.09 "Hg10 mi
8:30 AM79 °FSunny.9 mph48%30.09 "Hg10 mi
8:00 AM75 °FSunny.9 mph50%30.09 "Hg10 mi
7:30 AM72 °FSunny.7 mph57%30.09 "Hg10 mi
7:00 AM70 °FPassing clouds.7 mph60%30.09 "HgN/A
6:30 AM68 °FClear.6 mph64%30.07 "Hg10 mi
6:00 AM72 °FClear.5 mph61%30.07 "Hg10 mi
5:30 AM72 °FClear.7 mph61%30.07 "Hg10 mi
5:00 AM72 °FPassing clouds.8 mph61%30.07 "HgN/A
4:30 AM72 °FClear.7 mph61%30.07 "Hg10 mi
4:00 AM73 °FClear.9 mph57%30.07 "Hg10 mi
3:30 AM72 °FClear.10 mph61%30.07 "Hg10 mi
3:00 AM72 °FClear.10 mph65%30.07 "Hg10 mi
2:30 AM72 °FPassing clouds.7 mph69%30.07 "HgN/A
2:00 AM72 °FClear.9 mph69%30.07 "Hg10 mi
1:30 AM72 °FClear.No wind69%30.07 "Hg10 mi
1:00 AM70 °FClear.2 mph64%30.07 "Hg10 mi
12:30 AM70 °FPassing clouds.3 mph69%30.07 "HgN/A
12:00 AM72 °FPassing clouds.8 mph61%30.07 "HgN/A
11:30 PM
Wed, Sep 28
72 °FClear.5 mph65%30.09 "Hg10 mi
11:00 PM72 °FClear.6 mph65%30.09 "Hg10 mi
10:30 PM72 °FPassing clouds.6 mph61%30.09 "HgN/A
10:00 PM72 °FPassing clouds.6 mph53%30.09 "HgN/A
9:30 PM72 °FPassing clouds.7 mph53%30.07 "HgN/A
9:00 PM73 °FPassing clouds.3 mph57%30.07 "HgN/A
8:30 PM75 °FPassing clouds.3 mph57%30.07 "HgN/A
8:00 PM77 °FClear.5 mph54%30.07 "Hg10 mi
7:30 PM77 °FClear.5 mph54%30.04 "Hg10 mi
7:00 PM79 °FPassing clouds.7 mph48%30.04 "HgN/A
6:30 PM79 °FPassing clouds.8 mph45%30.04 "HgN/A
6:00 PM81 °FPassing clouds.10 mph42%30.04 "HgN/A
5:30 PM81 °FPassing clouds.12 mph48%30.04 "HgN/A
5:00 PM82 °FPassing clouds.12 mph45%30.04 "HgN/A
4:30 PM81 °FPassing clouds.12 mph48%30.04 "HgN/A
4:00 PM82 °FPassing clouds.13 mph45%30.04 "HgN/A
Weather by CustomWeather, © 2016

See weather overviewHow to use our weather pages